Waarnemingen

Advertentie
Mijn weer
Svenska Hogarna A, Zweden (2498): temperatuur & dauwpunt: 11.01.2019 02:00:00 - 17.01.2019 02:00:00 (CET)Svenska Hogarna A, Zweden (2498): windsnelheid & windstoten: 11.01.2019 02:00:00 - 17.01.2019 02:00:00 (CET)Svenska Hogarna A, Zweden (2498): windrichting: 11.01.2019 02:00:00 - 17.01.2019 02:00:00 (CET)Svenska Hogarna A, Zweden (2498): luchtdruk: 11.01.2019 02:00:00 - 17.01.2019 02:00:00 (CET)Svenska Hogarna A, Zweden (2498): zicht: 11.01.2019 02:00:00 - 17.01.2019 02:00:00 (CET)Svenska Hogarna A, Zweden (2498): neerslag: 11.01.2019 02:00:00 - 17.01.2019 02:00:00 (CET)
Datum & Tijd tt [°C] td [°C] ff [km/u] ff [kn] fx [km/u] fx [kn] dd ppp [hPa] vv [km] rr [mm]
17.01.2019 02:00:00 2,6 2,3 22 12 48 26 ZW 978,5 22 0,0
17.01.2019 01:00:00 3,3 3,0 36 19 50 27 WZW 978,8 45 0,0
17.01.2019 00:00:00 3,1 2,8 34 19 44 24 WZW 979,3 9 0,0
16.01.2019 23:00:00 3,1 2,8 35 19 44 24 ZW 979,7 9 0,7
16.01.2019 22:00:00 2,9 2,6 38 21 53 28 ZW 980,5 8 0,7
16.01.2019 21:00:00 2,9 2,6 39 21 48 26 ZZW 981,5 8 2,1
16.01.2019 20:00:00 0,8 0,5 41 22 63 34 ZO 983,2 2,6 1,0
16.01.2019 19:00:00 0,4 0,0 48 26 61 33 ZO 985,4 1,6 0,9
16.01.2019 18:00:00 -0,2 -0,8 44 24 56 30 ZO 987,8 2,9 0,3
16.01.2019 17:00:00 -0,9 -1,6 42 23 51 28 ZO 990,2 2,0 0,1
16.01.2019 16:00:00 -1,0 -2,1 31 17 37 20 ZZO 992,3 2,0 0,0
16.01.2019 15:00:00 -0,3 -4,4 24 13 35 19 Z 994,1 50 0,0
16.01.2019 14:00:00 -1,1 -5,9 21 11 26 14 ZZW 995,4 49 0,0
16.01.2019 13:00:00 -1,8 -5,1 13 7 18 10 ZZW 996,3 42 0,0
16.01.2019 12:00:00 -2,4 -5,2 9 5 13 7 ZW 996,9 34 0,0
16.01.2019 11:00:00 -2,8 -5,1 10 6 17 9 WZW 997,6 46 0,0
16.01.2019 10:00:00 -3,0 -4,7 14 7 20 11 W 998,1 34 0,0
16.01.2019 09:00:00 -3,2 -4,9 13 7 24 13 W 998,1 42 0,0
16.01.2019 08:00:00 -3,0 -4,4 21 11 26 14 W 997,7 49 0,0
16.01.2019 07:00:00 -3,0 -4,3 19 10 29 15 W 997,2 48 0,0
16.01.2019 06:00:00 -3,2 -4,3 26 14 34 18 WNW 997,2 37 0,0
16.01.2019 05:00:00 -2,7 -4,1 29 16 33 18 WNW 996,9 48 0,0
16.01.2019 04:00:00 -2,1 -4,0 27 15 36 19 WNW 996,5 40 0,0
16.01.2019 03:00:00 -2,5 -4,2 31 17 39 21 WNW 996,3 45 0,0
16.01.2019 02:00:00 -2,5 -4,4 31 17 37 20 WNW 995,5 42 0,0
16.01.2019 01:00:00 -2,3 -4,6 29 15 35 19 WNW 994,9 48 0,0
16.01.2019 00:00:00 -2,4 -4,7 29 15 35 19 WNW 994,5 47 0,0
15.01.2019 23:00:00 -2,6 -5,2 29 15 35 19 WNW 994,1 42 0,0
15.01.2019 22:00:00 -2,3 -5,1 28 15 34 18 WNW 993,6 47 0,0
15.01.2019 21:00:00 -2,3 -5,1 28 15 35 19 WNW 993,2 48 0,0
15.01.2019 20:00:00 -2,5 -5,6 29 16 37 20 WNW 992,7 47 0,0
15.01.2019 19:00:00 -2,4 -5,7 31 17 39 21 WNW 992,5 44 0,0
15.01.2019 18:00:00 -2,0 -5,5 31 17 42 23 WNW 992,2 41 0,0
15.01.2019 17:00:00 -2,2 -5,5 36 20 44 24 WNW 992,4 50 0,0
15.01.2019 16:00:00 -1,9 -5,1 35 19 44 24 WNW 992,5 37 0,0
15.01.2019 15:00:00 -1,8 -5,1 37 20 48 26 W 992,4 46 0,0
15.01.2019 14:00:00 -1,5 -4,8 39 21 49 27 WNW 992,3 47 0,0
15.01.2019 13:00:00 - - - - 51 28 - - - -
15.01.2019 12:00:00 -1,1 -4,3 42 23 51 28 WNW 992,1 32 0,0
15.01.2019 11:00:00 -1,0 -4,2 41 22 58 31 WNW 992,0 29 0,0
15.01.2019 10:00:00 -0,1 -3,3 44 24 68 37 NW 991,8 22 0,0
15.01.2019 09:00:00 0,2 -3,2 42 23 72 39 NW 991,4 41 0,0
15.01.2019 08:00:00 0,2 -1,6 42 23 74 40 NW 990,2 24 0,0
15.01.2019 07:00:00 -0,3 -1,3 46 25 82 44 NW 989,0 1,4 0,3
15.01.2019 06:00:00 -1,3 -1,9 56 30 77 42 NW 988,0 0,9 0,6
15.01.2019 05:00:00 -1,7 -2,4 63 34 84 46 NW 986,9 0,8 0,2
15.01.2019 04:00:00 -1,7 -2,5 66 36 82 45 WNW 986,0 5 0,0
15.01.2019 03:00:00 -1,9 -3,2 61 33 82 44 WNW 985,6 18 0,0
15.01.2019 02:00:00 -2,4 -3,4 61 33 85 46 WNW 984,9 4,7 0,0
15.01.2019 01:00:00 -2,3 -3,7 64 34 79 43 WNW 984,6 13 0,0
15.01.2019 00:00:00 -2,7 -3,7 56 30 74 40 WNW 984,5 3,2 0,0
14.01.2019 23:00:00 -3,0 -4,4 54 29 73 40 WNW 984,5 2,7 0,0
14.01.2019 22:00:00 -1,9 -7,4 63 34 76 41 WNW 983,7 47 0,0
14.01.2019 21:00:00 -1,3 -7,4 59 32 74 40 WNW 983,4 41 0,0
14.01.2019 20:00:00 -1,1 -7,2 57 31 77 42 WNW 983,2 45 0,0
14.01.2019 19:00:00 -1,3 -6,8 56 30 74 40 WNW 982,8 47 0,0
14.01.2019 18:00:00 -1,6 -6,4 51 28 67 36 WNW 982,6 50 0,0
14.01.2019 17:00:00 -1,5 -6,1 48 26 59 32 WNW 982,0 22 0,0
14.01.2019 16:00:00 -1,6 -5,4 46 25 58 31 WNW 981,4 45 0,0
14.01.2019 15:00:00 -1,8 -6,2 43 23 60 32 WNW 980,5 50 0,0
14.01.2019 14:00:00 -2,3 -7,2 49 27 66 36 WNW 979,6 46 0,0
14.01.2019 13:00:00 -2,3 -7,0 47 25 61 33 W 979,1 45 0,0
14.01.2019 12:00:00 -2,1 -7,4 46 25 60 33 WNW 978,8 41 0,0
14.01.2019 11:00:00 -2,1 -6,5 46 25 59 32 WNW 978,7 41 0,0
14.01.2019 10:00:00 -2,3 -6,0 44 24 63 34 WNW 978,5 41 0,0
14.01.2019 09:00:00 -2,7 -6,5 49 27 63 34 NW 978,0 50 0,0
14.01.2019 08:00:00 -2,7 -6,2 50 27 61 33 WNW 977,3 45 0,0
14.01.2019 07:00:00 -2,3 -5,4 45 25 61 33 NW 976,7 49 0,0
14.01.2019 06:00:00 -2,0 -5,5 47 25 61 33 NW 976,3 40 0,0
14.01.2019 05:00:00 -1,7 -5,0 49 27 61 33 WNW 975,8 41 0,0
14.01.2019 04:00:00 -1,1 -4,1 46 25 62 33 NW 975,3 45 0,0
14.01.2019 03:00:00 0,1 -3,5 46 25 69 38 NW 974,7 42 0,0
14.01.2019 02:00:00 0,9 -2,3 44 24 69 37 NNW 974,0 49 0,2
14.01.2019 01:00:00 -0,1 -0,5 37 20 72 39 NNW 973,6 1,7 0,4
14.01.2019 00:00:00 -0,9 -1,5 24 13 41 22 NW 973,6 1,5 0,0
13.01.2019 23:00:00 -0,9 -2,0 29 16 41 22 NW 973,7 6 0,0
13.01.2019 22:00:00 -0,5 -2,1 30 16 36 19 WNW 973,9 31 0,0
13.01.2019 21:00:00 -0,3 -1,7 19 11 26 14 WNW 974,2 27 0,0
13.01.2019 20:00:00 -0,1 -1,4 18 10 24 13 WNW 974,4 27 0,0
13.01.2019 19:00:00 0,3 -0,8 17 9 25 13 W 974,8 10 0,0
13.01.2019 18:00:00 0,8 -0,7 12 6 22 12 ZW 975,2 20 0,0
13.01.2019 17:00:00 0,6 -0,7 14 7 20 11 WZW 976,2 11 0,2
13.01.2019 16:00:00 1,5 -0,7 15 8 29 16 ZW 977,2 47 0,0
13.01.2019 15:00:00 1,9 -1,4 16 9 21 12 Z 978,1 43 0,0
13.01.2019 14:00:00 1,3 -1,6 7 4 16 8 ZZW 979,5 47 0,0
13.01.2019 13:00:00 1,3 -2,1 14 8 24 13 ZW 981,0 44 0,0
13.01.2019 12:00:00 1,2 -3,8 22 12 25 14 ZW 982,5 45 0,0
13.01.2019 11:00:00 1,3 -2,6 18 10 28 15 ZZW 984,0 50 0,0
13.01.2019 10:00:00 1,2 -2,9 23 12 27 15 ZW 985,4 49 0,0
13.01.2019 09:00:00 0,9 -2,5 21 11 28 15 ZW 986,6 41 0,0
13.01.2019 08:00:00 0,8 -2,4 19 11 24 13 ZZW 987,7 42 0,0
13.01.2019 07:00:00 0,6 -2,6 14 8 19 11 ZW 988,6 48 0,0
13.01.2019 06:00:00 0,5 -2,7 16 9 19 10 ZW 989,5 46 0,0
13.01.2019 05:00:00 0,3 -2,7 14 8 19 10 WZW 990,6 45 0,0
13.01.2019 04:00:00 0,6 -2,0 14 7 18 10 W 991,4 41 0,0
13.01.2019 03:00:00 0,6 -2,0 14 8 16 9 W 992,3 46 0,0
13.01.2019 02:00:00 0,5 -2,2 11 6 18 10 W 992,7 50 0,0
13.01.2019 01:00:00 0,6 -2,3 14 8 23 13 WNW 993,3 50 0,0
13.01.2019 00:00:00 0,6 -2,0 20 11 23 12 WNW 993,9 49 0,0
12.01.2019 23:00:00 0,5 -2,1 19 10 24 13 W 994,0 50 0,0
12.01.2019 22:00:00 0,5 -2,4 20 11 27 14 WNW 994,5 50 0,0
12.01.2019 21:00:00 0,7 -2,2 21 11 24 13 W 995,1 48 0,0
12.01.2019 20:00:00 0,8 -2,6 21 12 27 14 WNW 995,6 39 0,0
12.01.2019 19:00:00 0,6 -2,6 19 10 26 14 W 995,9 50 0,0
12.01.2019 18:00:00 0,7 -2,9 21 11 27 15 WNW 995,9 43 0,0
12.01.2019 17:00:00 0,7 -2,9 22 12 28 15 WNW 996,1 41 0,0
12.01.2019 16:00:00 0,9 -3,2 24 13 32 17 WNW 996,3 44 0,0
12.01.2019 15:00:00 1,1 -2,7 27 15 34 18 W 996,6 48 0,0
12.01.2019 14:00:00 1,2 -2,7 29 16 36 20 W 996,9 44 0,0
12.01.2019 13:00:00 1,4 -2,9 31 17 39 21 W 997,1 49 0,0
12.01.2019 12:00:00 - - - - 38 20 - - - -
12.01.2019 11:00:00 1,2 -2,7 32 17 42 23 W 998,0 45 0,0
12.01.2019 10:00:00 0,9 -2,9 34 19 44 24 WNW 998,4 44 0,0
12.01.2019 09:00:00 0,9 -2,9 36 20 45 24 WNW 998,6 47 0,0
12.01.2019 08:00:00 1,0 -3,1 35 19 46 25 WNW 999,0 40 0,0
12.01.2019 07:00:00 1,0 -3,1 37 20 48 26 W 999,1 50 0,0
12.01.2019 06:00:00 1,2 -3,1 38 21 53 28 WNW 999,1 47 0,0
12.01.2019 05:00:00 1,4 -3,1 44 24 56 30 WNW 999,1 46 0,0
12.01.2019 04:00:00 1,5 -3,2 44 24 57 31 WNW 999,4 48 0,0
12.01.2019 03:00:00 1,6 -2,9 45 24 64 34 WNW 999,6 36 0,0
12.01.2019 02:00:00 1,7 -3,2 51 28 67 36 WNW 999,2 38 0,0
12.01.2019 01:00:00 1,6 -2,9 51 28 67 36 WNW 999,4 42 0,0
12.01.2019 00:00:00 2,0 -2,9 56 31 72 39 WNW 999,5 50 0,0
11.01.2019 23:00:00 2,2 -3,1 55 30 72 39 WNW 999,4 42 0,0
11.01.2019 22:00:00 1,9 -3,0 53 29 67 36 WNW 999,1 50 0,0
11.01.2019 21:00:00 2,1 -2,6 51 28 67 36 WNW 998,9 44 0,0
11.01.2019 20:00:00 2,2 -2,5 52 28 65 35 W 998,6 49 0,0
11.01.2019 19:00:00 - - - - 67 36 - - - -
11.01.2019 18:00:00 2,3 -3,0 52 28 67 36 W 998,5 47 0,0
11.01.2019 17:00:00 - - - - 66 35 - - - -
11.01.2019 16:00:00 2,7 -2,8 47 26 66 35 WNW 999,0 47 0,0
11.01.2019 15:00:00 2,9 -2,8 48 26 58 31 WNW 998,7 39 0,0
11.01.2019 14:00:00 3,1 -2,0 40 22 48 26 W 999,2 46 0,0
11.01.2019 13:00:00 2,7 -1,7 37 20 49 26 W 999,7 39 0,0
11.01.2019 12:00:00 2,8 0,0 32 17 42 23 W 1000,4 41 0,0
11.01.2019 11:00:00 2,5 0,6 29 16 42 23 W 1000,9 50 0,0
11.01.2019 10:00:00 2,4 1,1 35 19 45 25 W 1001,0 40 0,0
11.01.2019 09:00:00 2,3 1,1 35 19 44 24 W 1000,8 40 0,0
11.01.2019 08:00:00 2,5 1,2 35 19 44 24 W 1000,9 49 0,0
11.01.2019 07:00:00 2,4 1,2 37 20 58 32 W 1000,8 44 0,0
11.01.2019 06:00:00 2,3 1,0 40 22 52 28 W 1001,2 38 0,0
11.01.2019 05:00:00 2,0 0,7 41 22 55 30 WZW 1002,1 40 0,0
11.01.2019 04:00:00 - - - - 64 35 - - - -
11.01.2019 03:00:00 1,7 0,2 49 26 65 35 ZW 1003,5 39 0,0
11.01.2019 02:00:00 1,6 -0,2 50 27 65 35 ZW 1004,8 40 0,0

tt = temperatuur
td = dauwpunt
ff = windsnelheid
fx = windstoten
dd = windrichting
ppp = luchtdruk
vv = zicht
rr = neerslag

Weerstations in de omgeving